User: anonymous   Login
Location: St. Malo Provincial Park
(49.3214°N, 96.9305°W)
Time: 08:37:42
(UTC-06:00)
Language:

Iridium 6 - Orbit

View from above orbital plane
View from above orbital plane
View from above satellite
View from above satellite

Ground track
Ground track

The orbit data is extracted from the following two-line orbital elements,

1 24794U 97020C   15030.88498663  .00000508  00000-0  17428-3 0  9612
2 24794 086.4003 321.8216 0002036 095.7073 264.4355 14.34216653928748
Epoch (UTC): 30 January 2015 21:14:22
Eccentricity: 0.0002036
inclination: 86.4003°
perigee height: 776 km
apogee height: 779 km
right ascension of ascending node: 321.8216°
argument of perigee: 95.7073°
revolutions per day: 14.34216653
mean anomaly at epoch: 264.4355°
orbit number at epoch: 92874

The dashed part of the orbit path shows where the satellite is in the earth's shadow,  

DLR